CST,Max TemperatureF,Mean TemperatureF,Min TemperatureF,Max Dew PointF,MeanDew PointF,Min DewpointF,Max Humidity, Mean Humidity, Min Humidity, Max Sea Level PressureIn, Mean Sea Level PressureIn, Min Sea Level PressureIn, Max VisibilityMiles, Mean VisibilityMiles, Min VisibilityMiles, Max Wind SpeedMPH, Mean Wind SpeedMPH, Max Gust SpeedMPH,PrecipitationIn, CloudCover, Events, WindDirDegrees
2012-1-1,59,48,36,50,30,14,77,52,27,30.36,30.12,29.81,10,10,10,29,14,37,0.00,2,,282
2012-1-2,38,31,24,15,11,6,53,41,29,30.48,30.38,30.32,10,10,10,25,15,35,0.00,1,,318
2012-1-3,35,26,17,12,10,8,74,55,35,30.58,30.44,30.28,10,10,10,14,5,17,0.00,0,,248
2012-1-4,48,38,28,29,21,10,85,62,38,30.27,30.17,30.08,10,10,10,20,9,24,0.00,0,,229
2012-1-5,57,41,24,32,28,22,92,64,36,30.22,30.12,29.98,10,10,7,16,7,21,0.00,0,,219
2012-1-6,65,53,40,52,38,28,80,56,31,30.00,29.92,29.85,10,10,10,20,10,29,0.00,1,,216
2012-1-7,57,47,36,53,33,22,93,60,27,30.20,30.06,29.88,10,9,5,17,7,24,0.00,2,,359
2012-1-8,53,43,33,33,31,28,76,59,41,30.26,30.21,30.19,10,10,10,13,8,16,0.00,6,,49
2012-1-9,55,43,30,39,34,27,93,67,41,30.22,30.17,30.13,10,8,2,9,2,13,0.21,3,Rain,346
2012-1-10,55,41,27,43,34,24,92,64,35,30.12,29.92,29.69,10,7,2,15,6,18,0.81,5,Rain,83
2012-1-11,46,43,39,46,44,39,100,96,92,29.67,29.58,29.52,7,3,0,16,6,22,0.21,8,Fog-Rain,265
2012-1-12,43,32,21,42,25,11,100,80,59,29.98,29.75,29.60,10,6,1,25,14,33,0.01,8,Snow,287
2012-1-13,32,25,18,19,16,10,91,75,58,30.19,30.09,29.97,10,10,5,22,9,44,T,4,Snow,262
2012-1-14,43,31,18,26,20,15,84,67,49,30.34,30.15,29.99,10,10,10,18,8,24,0.00,1,,233
2012-1-15,45,32,19,28,23,16,91,70,49,30.46,30.34,30.18,10,10,8,15,7,20,0.00,0,,156
2012-1-16,63,54,45,55,47,29,80,65,49,30.16,29.98,29.83,10,10,10,20,12,33,T,7,Rain,195
2012-1-17,67,48,29,58,41,20,86,73,59,30.31,29.98,29.74,10,10,1,37,15,48,0.32,6,Rain-Thunderstorm,288
2012-1-18,36,29,22,24,19,16,78,65,51,30.36,30.26,30.08,10,10,10,16,5,21,0.00,3,,347
2012-1-19,50,39,27,30,26,21,81,64,46,30.08,30.02,29.95,10,10,10,16,8,25,0.00,2,,195
2012-1-20,43,36,29,38,31,23,85,75,64,30.07,29.93,29.80,10,9,6,17,10,22,T,8,Rain,61
2012-1-21,36,32,28,32,27,23,89,79,69,30.15,30.08,29.89,10,9,6,20,10,24,0.00,8,,29
2012-1-22,66,50,34,63,45,30,100,91,82,30.08,29.83,29.57,10,4,0,44,12,53,0.85,8,Fog-Rain-Thunderstorm,160
2012-1-23,59,48,37,51,39,33,85,71,56,30.07,29.84,29.56,10,10,10,29,13,37,0.02,2,,231
2012-1-24,52,40,28,33,30,27,92,67,41,30.32,30.23,30.09,10,9,0,8,3,12,0.00,0,Fog,34
2012-1-25,40,36,32,38,34,29,96,86,75,30.29,30.13,29.88,10,5,1,16,8,18,0.46,7,Rain,61
2012-1-26,45,42,38,45,40,35,100,95,89,29.86,29.77,29.67,10,4,0,16,7,21,0.54,8,Fog-Rain,306
2012-1-27,43,37,31,36,34,30,100,85,70,30.06,29.98,29.82,10,7,2,8,4,12,0.00,3,,250
2012-1-28,46,39,32,38,26,18,92,63,34,30.37,30.24,29.99,10,9,6,21,8,30,0.01,2,Rain,284
2012-1-29,52,42,31,32,27,23,70,56,41,30.34,30.29,30.26,10,10,10,23,9,31,0.00,0,,220
2012-1-30,62,47,31,31,28,26,78,53,27,30.26,30.19,30.12,10,10,10,24,9,33,0.00,1,,204
2012-1-31,61,56,50,52,43,27,80,59,38,30.16,30.10,30.03,10,9,4,15,9,25,0.11,7,Rain,203